Flood From: 19-02-2018 06:00 Until: 20-02-2018 06:00 warning for: Flood Level: Yellow info button

Although rather usual in this region, locally or potentially dangerous phenomena are expected. (such as local winds, summer thunderstorms, rising streams or high waves) Be aware and pay attention to the latest weather updates, especially if you carry out activities exposed to weather or close to a stream or shoreline. 


Meteo18 Weather Cam more information Meteo18 Weather Cam


Thunder radar more information blitzortung!


Rain radar more information rain snow radar


Visit our other weather sites:

Template documentation
and downloads

And another site



Weather Underground History page Text

Daily Summary for March 1, 2017 Units:  English    Metric   Both
« Previous Day
Next Day »
Daily Weekly Monthly Yearly Custom
  High: Low: Average:
Temperature: TemperatureC °F 5.8 °F 7.9 °F
Dew Point: DewpointC °F 3.6 °F 6.6 °F
Humidity: Humidity % 84 % 91 %
Wind Speed: WindSpeedKMH mph 6.4 mph 18.2 mph
Wind Gust: WindSpeedGustKMH mph - -
Wind:- - SW
Pressure: PressurehPa in 1007.0 in -
Precipitation: 13.7 in    
Historical Graphs
 
 
Tabular Data for March 1, 2017
Time Temperature Dew Point Pressure Wind Wind Speed Wind Gust Humidity Rainfall Rate (Hourly)
TemperatureC °F DewpointC °F PressurehPa in Calm     Humidity % HourlyPrecipMM in
00:02 5.8 °F 3.6 °F 1007.3 in SW 20.9 mph 37.0 mph 86 % 0.3 in
00:12 6.1 °F 3.8 °F 1007.0 in SSW 20.9 mph 37.0 mph 85 % 0.3 in
00:17 6.1 °F 3.6 °F 1007.3 in West 37.0 mph 37.0 mph 84 % 0.3 in
00:22 6.2 °F 3.7 °F 1007.0 in WSW 20.9 mph 35.4 mph 84 % 0.3 in
00:32 6.2 °F 3.7 °F 1007.3 in West 25.7 mph 37.0 mph 84 % 0.3 in
00:37 6.3 °F 3.8 °F 1007.3 in West 38.6 mph 45.1 mph 84 % 0.3 in
00:42 6.3 °F 3.8 °F 1007.3 in WSW 19.3 mph 45.1 mph 84 % 0.3 in
00:52 6.3 °F 4.0 °F 1007.3 in WSW 22.5 mph 45.1 mph 85 % 0.0 in
00:57 6.2 °F 3.9 °F 1007.3 in SW 17.7 mph 45.1 mph 85 % 0.0 in
01:02 6.2 °F 4.0 °F 1007.3 in WSW 20.9 mph 45.1 mph 86 % 0.0 in
01:12 6.2 °F 4.0 °F 1008.0 in West 17.7 mph 41.8 mph 86 % 0.0 in
01:17 6.2 °F 4.0 °F 1008.0 in WNW 17.7 mph 35.4 mph 86 % 0.0 in
01:22 6.2 °F 4.0 °F 1008.4 in West 24.1 mph 35.4 mph 86 % 0.0 in
01:27 6.2 °F 4.0 °F 1008.4 in SSW 6.4 mph 32.2 mph 86 % 0.0 in
01:32 6.2 °F 4.2 °F 1008.4 in WSW 24.1 mph 32.2 mph 87 % 0.0 in
01:37 6.1 °F 4.1 °F 1008.4 in SW 33.8 mph 33.8 mph 87 % 0.0 in
01:42 6.2 °F 4.0 °F 1008.4 in SW 9.7 mph 30.6 mph 86 % 0.0 in
01:47 6.2 °F 4.2 °F 1008.4 in WSW 19.3 mph 41.8 mph 87 % 0.0 in
01:52 6.2 °F 4.2 °F 1008.4 in SW 17.7 mph 41.8 mph 87 % 0.0 in
01:57 6.2 °F 4.2 °F 1008.4 in WSW 19.3 mph 41.8 mph 87 % 0.0 in
02:02 6.2 °F 4.2 °F 1008.4 in West 8.0 mph 41.8 mph 87 % 0.0 in
02:07 6.2 °F 4.2 °F 1008.4 in West 12.9 mph 27.4 mph 87 % 0.0 in
02:12 6.2 °F 4.2 °F 1008.7 in West 11.3 mph 27.4 mph 87 % 0.0 in
02:17 6.2 °F 4.4 °F 1008.4 in West 14.5 mph 27.4 mph 88 % 0.0 in
02:22 6.3 °F 4.5 °F 1008.4 in West 12.9 mph 27.4 mph 88 % 0.0 in
02:27 6.3 °F 4.5 °F 1008.4 in WSW 12.9 mph 33.8 mph 88 % 0.0 in
02:32 6.3 °F 4.5 °F 1008.7 in WSW 17.7 mph 32.2 mph 88 % 0.0 in
02:37 6.2 °F 4.4 °F 1008.7 in SW 19.3 mph 32.2 mph 88 % 0.0 in
02:42 6.3 °F 4.5 °F 1008.7 in SW 20.9 mph 30.6 mph 88 % 0.0 in
02:47 6.2 °F 4.5 °F 1008.7 in West 24.1 mph 32.2 mph 89 % 0.0 in
02:52 6.2 °F 4.5 °F 1008.7 in SW 9.7 mph 35.4 mph 89 % 0.0 in
02:57 6.1 °F 4.6 °F 1008.7 in West 22.5 mph 35.4 mph 90 % 0.0 in
03:02 6.1 °F 4.6 °F 1008.7 in West 8.0 mph 35.4 mph 90 % 0.0 in
03:12 6.1 °F 4.6 °F 1008.7 in WSW 11.3 mph 35.4 mph 90 % 0.0 in
03:17 6.1 °F 4.6 °F 1008.7 in WSW 19.3 mph 35.4 mph 90 % 0.0 in
03:22 6.2 °F 4.5 °F 1008.7 in West 14.5 mph 32.2 mph 89 % 0.0 in
03:32 6.2 °F 4.5 °F 1009.0 in West 16.1 mph 33.8 mph 89 % 0.0 in
03:42 6.3 °F 4.6 °F 1009.0 in West 12.9 mph 29.0 mph 89 % 0.0 in
03:52 6.3 °F 4.6 °F 1009.0 in WSW 14.5 mph 25.7 mph 89 % 0.0 in
03:57 6.3 °F 4.6 °F 1009.0 in SSW 9.7 mph 30.6 mph 89 % 0.0 in
04:02 6.3 °F 4.6 °F 1009.0 in West 22.5 mph 30.6 mph 89 % 0.0 in
04:12 6.4 °F 4.7 °F 1009.0 in SW 19.3 mph 35.4 mph 89 % 0.0 in
04:17 6.4 °F 4.7 °F 1009.0 in WSW 16.1 mph 35.4 mph 89 % 0.0 in
04:22 6.5 °F 4.8 °F 1009.0 in West 12.9 mph 33.8 mph 89 % 0.0 in
04:32 6.5 °F 4.7 °F 1009.0 in WSW 19.3 mph 33.8 mph 88 % 0.0 in
04:42 6.4 °F 4.7 °F 1009.4 in SW 16.1 mph 32.2 mph 89 % 0.0 in
04:47 6.4 °F 4.7 °F 1009.4 in SW 24.1 mph 35.4 mph 89 % 0.0 in
04:52 6.3 °F 4.8 °F 1009.4 in WSW 29.0 mph 35.4 mph 90 % 0.0 in
04:57 6.3 °F 4.8 °F 1009.4 in SW 17.7 mph 33.8 mph 90 % 0.0 in
05:02 6.2 °F 4.8 °F 1009.4 in West 8.0 mph 33.8 mph 91 % 0.0 in
05:12 6.2 °F 4.8 °F 1009.7 in WSW 20.9 mph 33.8 mph 91 % 0.0 in
05:17 6.2 °F 4.8 °F 1009.7 in SW 20.9 mph 27.4 mph 91 % 0.0 in
05:22 6.2 °F 4.8 °F 1010.0 in WSW 19.3 mph 30.6 mph 91 % 0.0 in
05:32 6.2 °F 5.0 °F 1010.0 in WSW 20.9 mph 38.6 mph 92 % 0.0 in
05:37 6.2 °F 5.0 °F 1010.0 in WSW 29.0 mph 29.0 mph 92 % 0.0 in
05:42 6.2 °F 5.0 °F 1010.0 in SW 6.4 mph 27.4 mph 92 % 0.0 in
05:47 6.2 °F 5.0 °F 1010.0 in WSW 24.1 mph 29.0 mph 92 % 0.0 in
05:52 6.2 °F 5.0 °F 1010.0 in WSW 12.9 mph 29.0 mph 92 % 0.0 in
05:57 6.3 °F 5.1 °F 1010.0 in SW 9.7 mph 29.0 mph 92 % 0.0 in
06:02 6.3 °F 4.9 °F 1010.0 in WSW 16.1 mph 29.0 mph 91 % 0.0 in
06:12 6.3 °F 5.1 °F 1010.0 in West 16.1 mph 29.0 mph 92 % 0.0 in
06:17 6.3 °F 5.1 °F 1010.0 in WSW 12.9 mph 30.6 mph 92 % 0.0 in
06:22 6.3 °F 5.1 °F 1010.0 in SW 14.5 mph 30.6 mph 92 % 0.0 in
06:27 6.3 °F 5.1 °F 1010.0 in SW 6.4 mph 30.6 mph 92 % 0.0 in
06:32 6.3 °F 5.1 °F 1010.4 in West 9.7 mph 30.6 mph 92 % 0.0 in
06:37 6.3 °F 5.1 °F 1010.4 in SW 11.3 mph 30.6 mph 92 % 0.0 in
06:42 6.3 °F 5.1 °F 1010.4 in WSW 16.1 mph 25.7 mph 92 % 0.0 in
06:47 6.3 °F 5.1 °F 1010.4 in SSW 17.7 mph 25.7 mph 92 % 0.0 in
06:52 6.3 °F 5.1 °F 1010.4 in SW 16.1 mph 25.7 mph 92 % 0.0 in
06:57 6.3 °F 5.3 °F 1010.4 in WSW 19.3 mph 27.4 mph 93 % 0.0 in
07:02 6.2 °F 5.2 °F 1010.4 in SSW 6.4 mph 27.4 mph 93 % 0.0 in
07:07 6.2 °F 5.2 °F 1010.4 in WSW 11.3 mph 27.4 mph 93 % 0.3 in
07:12 6.2 °F 5.2 °F 1010.4 in WSW 12.9 mph 27.4 mph 93 % 0.3 in
07:17 6.2 °F 5.3 °F 1010.4 in WSW 9.7 mph 22.5 mph 94 % 0.3 in
07:27 6.2 °F 5.3 °F 1010.4 in WSW 11.3 mph 22.5 mph 94 % 0.5 in
07:32 6.2 °F 5.3 °F 1010.4 in SW 6.4 mph 22.5 mph 94 % 0.5 in
07:37 6.2 °F 5.3 °F 1010.4 in WSW 12.9 mph 22.5 mph 94 % 0.8 in
07:42 6.2 °F 5.5 °F 1010.4 in SW 12.9 mph 22.5 mph 95 % 0.8 in
07:47 6.2 °F 5.3 °F 1010.7 in SW 16.1 mph 24.1 mph 94 % 0.8 in
07:57 6.3 °F 5.4 °F 1010.7 in SSW 9.7 mph 20.9 mph 94 % 0.8 in
08:02 6.3 °F 5.4 °F 1010.7 in SW 6.4 mph 20.9 mph 94 % 0.8 in
08:07 6.3 °F 5.4 °F 1010.7 in SW 8.0 mph 20.9 mph 94 % 0.5 in
08:12 6.3 °F 5.4 °F 1010.7 in SW 11.3 mph 20.9 mph 94 % 0.5 in
08:17 6.4 °F 5.4 °F 1011.1 in West 8.0 mph 24.1 mph 93 % 0.5 in
08:22 6.4 °F 5.4 °F 1011.1 in WSW 16.1 mph 24.1 mph 93 % 0.5 in
08:32 6.5 °F 5.4 °F 1011.1 in SW 6.4 mph 24.1 mph 93 % 0.5 in
08:37 6.6 °F 5.5 °F 1011.1 in SW 14.5 mph 25.7 mph 93 % 0.3 in
08:42 6.6 °F 5.4 °F 1011.1 in WSW 14.5 mph 25.7 mph 92 % 0.3 in
08:47 6.7 °F 5.5 °F 1011.1 in WSW 14.5 mph 24.1 mph 92 % 0.3 in
08:57 6.8 °F 5.6 °F 1011.1 in WSW 19.3 mph 25.7 mph 92 % 0.3 in
09:02 6.8 °F 5.4 °F 1011.1 in SW 12.9 mph 25.7 mph 91 % 0.3 in
09:07 6.9 °F 5.5 °F 1011.1 in SSW 11.3 mph 30.6 mph 91 % 0.3 in
09:12 6.9 °F 5.5 °F 1011.1 in SW 11.3 mph 30.6 mph 91 % 0.3 in
09:17 7.0 °F 5.6 °F 1011.1 in WSW 16.1 mph 30.6 mph 91 % 0.3 in
09:27 7.1 °F 5.7 °F 1011.1 in SW 22.5 mph 24.1 mph 91 % 0.0 in
09:32 7.1 °F 5.7 °F 1011.1 in SW 17.7 mph 24.1 mph 91 % 0.0 in
09:37 7.1 °F 5.7 °F 1011.4 in SSW 14.5 mph 27.4 mph 91 % 0.0 in
09:42 7.1 °F 5.7 °F 1011.4 in WSW 6.4 mph 27.4 mph 91 % 0.0 in
09:47 7.0 °F 5.6 °F 1011.4 in SW 8.0 mph 22.5 mph 91 % 0.3 in
09:52 7.0 °F 5.8 °F 1011.4 in West 6.4 mph 22.5 mph 92 % 0.3 in
09:57 7.0 °F 5.8 °F 1011.1 in SW 11.3 mph 22.5 mph 92 % 0.5 in
10:02 7.1 °F 5.9 °F 1011.1 in SW 17.7 mph 22.5 mph 92 % 0.5 in
10:07 7.1 °F 5.9 °F 1011.1 in SW 11.3 mph 25.7 mph 92 % 0.5 in
10:12 7.1 °F 5.9 °F 1011.1 in SW 9.7 mph 25.7 mph 92 % 0.8 in
10:17 7.2 °F 6.0 °F 1011.1 in WSW 14.5 mph 25.7 mph 92 % 0.8 in
10:22 7.2 °F 6.0 °F 1011.4 in WSW 14.5 mph 25.7 mph 92 % 0.8 in
10:32 7.2 °F 6.0 °F 1011.1 in WSW 17.7 mph 32.2 mph 92 % 1.0 in
10:37 7.3 °F 6.1 °F 1011.4 in West 17.7 mph 32.2 mph 92 % 1.0 in
10:42 7.3 °F 6.1 °F 1011.4 in WSW 20.9 mph 32.2 mph 92 % 0.8 in
10:47 7.3 °F 5.4 °F 1011.4 in SW 29.0 mph 35.4 mph 88 % 0.8 in
10:52 7.3 °F 5.3 °F 1011.4 in SSW 16.1 mph 37.0 mph 87 % 0.5 in
10:57 7.3 °F 5.4 °F 1011.4 in WSW 17.7 mph 37.0 mph 88 % 0.8 in
11:02 7.3 °F 5.4 °F 1011.4 in WSW 27.4 mph 37.0 mph 88 % 0.5 in
11:07 7.3 °F 5.3 °F 1011.4 in WSW 20.9 mph 33.8 mph 87 % 0.5 in
11:12 7.3 °F 5.3 °F 1011.4 in SW 12.9 mph 32.2 mph 87 % 0.5 in
11:17 7.3 °F 5.3 °F 1011.1 in SW 12.9 mph 32.2 mph 87 % 0.5 in
11:22 7.4 °F 5.5 °F 1011.1 in SW 24.1 mph 27.4 mph 88 % 0.5 in
11:27 7.5 °F 5.6 °F 1011.1 in WSW 17.7 mph 27.4 mph 88 % 0.5 in
11:32 7.6 °F 5.7 °F 1011.1 in South 20.9 mph 33.8 mph 88 % 0.5 in
11:37 7.7 °F 6.0 °F 1011.1 in SW 16.1 mph 35.4 mph 89 % 0.5 in
11:42 7.8 °F 6.1 °F 1011.1 in SW 19.3 mph 35.4 mph 89 % 0.5 in
11:47 7.8 °F 5.8 °F 1010.7 in SW 17.7 mph 38.6 mph 87 % 0.5 in
11:52 7.8 °F 5.8 °F 1010.7 in SW 19.3 mph 38.6 mph 87 % 0.3 in
11:57 7.8 °F 5.9 °F 1010.7 in SW 22.5 mph 38.6 mph 88 % 0.3 in
12:02 7.7 °F 6.0 °F 1011.1 in SW 17.7 mph 38.6 mph 89 % 0.3 in
12:07 7.7 °F 5.8 °F 1010.7 in SW 29.0 mph 38.6 mph 88 % 0.3 in
12:12 7.6 °F 5.9 °F 1010.4 in SSW 29.0 mph 38.6 mph 89 % 0.3 in
12:17 7.5 °F 6.0 °F 1010.7 in SW 20.9 mph 38.6 mph 90 % 0.3 in
12:22 7.4 °F 5.9 °F 1010.4 in SW 25.7 mph 37.0 mph 90 % 0.3 in
12:27 7.4 °F 5.9 °F 1010.4 in SSW 27.4 mph 33.8 mph 90 % 0.0 in
12:32 7.3 °F 5.9 °F 1010.4 in SW 32.2 mph 33.8 mph 91 % 0.0 in
12:37 7.1 °F 5.9 °F 1010.4 in SSW 25.7 mph 38.6 mph 92 % 0.0 in
12:42 7.0 °F 5.9 °F 1010.4 in SSW 22.5 mph 40.2 mph 93 % 0.0 in
12:47 6.9 °F 6.0 °F 1010.4 in SW 11.3 mph 40.2 mph 94 % 0.0 in
12:52 6.9 °F 6.0 °F 1010.4 in SSW 19.3 mph 40.2 mph 94 % 0.0 in
12:57 6.9 °F 6.0 °F 1010.4 in SW 20.9 mph 32.2 mph 94 % 0.3 in
13:02 6.8 °F 5.9 °F 1010.4 in South 12.9 mph 32.2 mph 94 % 0.5 in
13:12 6.9 °F 6.2 °F 1010.0 in SSW 19.3 mph 24.1 mph 95 % 0.5 in
13:17 6.9 °F 6.2 °F 1010.0 in South 11.3 mph 24.1 mph 95 % 0.5 in
13:22 6.9 °F 6.0 °F 1010.0 in SSW 9.7 mph 24.1 mph 94 % 0.8 in
13:32 7.0 °F 6.1 °F 1009.7 in SW 20.9 mph 24.1 mph 94 % 1.3 in
13:37 7.0 °F 6.1 °F 1009.7 in SSW 16.1 mph 24.1 mph 94 % 1.3 in
13:42 7.1 °F 6.2 °F 1009.7 in SW 12.9 mph 20.9 mph 94 % 1.5 in
13:47 7.1 °F 6.2 °F 1009.7 in SSW 11.3 mph 25.7 mph 94 % 1.5 in
13:52 7.1 °F 6.4 °F 1009.7 in SSW 9.7 mph 25.7 mph 95 % 1.5 in
13:57 7.1 °F 6.4 °F 1009.7 in South 12.9 mph 25.7 mph 95 % 1.8 in
14:02 7.2 °F 6.5 °F 1009.4 in SSW 9.7 mph 20.9 mph 95 % 2.0 in
14:07 7.2 °F 6.5 °F 1009.4 in SSW 9.7 mph 20.9 mph 95 % 2.3 in
14:12 7.3 °F 6.7 °F 1009.4 in SSW 9.7 mph 20.9 mph 96 % 2.3 in
14:17 7.3 °F 6.7 °F 1009.0 in SSW 16.1 mph 20.9 mph 96 % 2.3 in
14:22 7.5 °F 6.9 °F 1009.0 in South 19.3 mph 24.1 mph 96 % 2.3 in
14:27 7.7 °F 7.1 °F 1009.0 in SSW 11.3 mph 24.1 mph 96 % 2.3 in
14:32 7.8 °F 7.2 °F 1008.7 in SSW 20.9 mph 27.4 mph 96 % 2.3 in
14:37 7.9 °F 7.3 °F 1008.7 in SSW 20.9 mph 27.4 mph 96 % 2.3 in
14:42 8.1 °F 7.5 °F 1008.7 in SW 19.3 mph 27.4 mph 96 % 2.5 in
14:47 8.1 °F 7.5 °F 1008.7 in SSW 19.3 mph 29.0 mph 96 % 2.3 in
14:52 8.2 °F 7.6 °F 1008.7 in SW 17.7 mph 29.0 mph 96 % 2.3 in
14:57 8.2 °F 7.6 °F 1008.7 in SW 19.3 mph 29.0 mph 96 % 2.3 in
15:02 8.2 °F 7.6 °F 1008.7 in SSW 19.3 mph 29.0 mph 96 % 2.3 in
15:07 8.3 °F 7.7 °F 1008.4 in WSW 12.9 mph 27.4 mph 96 % 2.3 in
15:12 8.4 °F 7.8 °F 1008.7 in SW 14.5 mph 29.0 mph 96 % 2.0 in
15:17 8.5 °F 7.9 °F 1008.4 in SW 25.7 mph 29.0 mph 96 % 1.8 in
15:22 8.7 °F 8.1 °F 1008.4 in SW 12.9 mph 29.0 mph 96 % 1.8 in
15:32 8.8 °F 8.0 °F 1008.4 in SW 17.7 mph 33.8 mph 95 % 1.8 in
15:37 8.9 °F 8.1 °F 1008.4 in SSW 17.7 mph 33.8 mph 95 % 1.8 in
15:42 8.9 °F 8.1 °F 1008.4 in SSW 24.1 mph 30.6 mph 95 % 1.8 in
15:52 9.1 °F 8.3 °F 1008.4 in SW 20.9 mph 30.6 mph 95 % 1.5 in
15:57 9.2 °F 8.4 °F 1008.4 in SW 19.3 mph 37.0 mph 95 % 1.8 in
16:02 9.3 °F 8.5 °F 1008.4 in WSW 14.5 mph 37.0 mph 95 % 1.5 in
16:12 9.6 °F 8.8 °F 1008.4 in SW 20.9 mph 30.6 mph 95 % 1.5 in
16:17 9.6 °F 8.8 °F 1008.4 in SW 8.0 mph 30.6 mph 95 % 1.3 in
16:22 9.7 °F 8.9 °F 1008.4 in SW 24.1 mph 30.6 mph 95 % 1.5 in
16:32 9.9 °F 9.1 °F 1008.4 in SW 12.9 mph 32.2 mph 95 % 1.3 in
16:37 10.0 °F 9.1 °F 1008.4 in SSW 12.9 mph 40.2 mph 94 % 1.5 in
16:42 10.1 °F 9.2 °F 1008.4 in SW 22.5 mph 40.2 mph 94 % 1.5 in
16:52 10.2 °F 9.3 °F 1008.4 in WSW 17.7 mph 35.4 mph 94 % 1.3 in
16:57 10.2 °F 9.3 °F 1008.4 in SW 11.3 mph 35.4 mph 94 % 1.3 in
17:02 10.3 °F 9.4 °F 1008.4 in West 19.3 mph 32.2 mph 94 % 1.3 in
17:12 10.3 °F 9.4 °F 1008.4 in SW 22.5 mph 32.2 mph 94 % 1.3 in
17:17 10.4 °F 9.5 °F 1008.4 in SW 25.7 mph 29.0 mph 94 % 1.0 in
17:22 10.4 °F 9.5 °F 1008.4 in WSW 12.9 mph 37.0 mph 94 % 0.8 in
17:27 10.4 °F 9.5 °F 1008.4 in SW 20.9 mph 37.0 mph 94 % 0.8 in
17:32 10.5 °F 9.6 °F 1008.4 in WSW 12.9 mph 37.0 mph 94 % 0.8 in
17:37 10.6 °F 9.7 °F 1008.4 in SSW 20.9 mph 35.4 mph 94 % 0.8 in
17:42 10.7 °F 9.6 °F 1008.4 in SW 17.7 mph 33.8 mph 93 % 0.5 in
17:52 10.7 °F 9.6 °F 1008.4 in SW 19.3 mph 38.6 mph 93 % 0.5 in
17:57 10.8 °F 9.6 °F 1008.4 in WSW 12.9 mph 38.6 mph 92 % 0.5 in
18:02 10.8 °F 9.6 °F 1008.4 in WSW 11.3 mph 32.2 mph 92 % 0.5 in
18:12 10.7 °F 9.5 °F 1008.4 in WSW 33.8 mph 38.6 mph 92 % 0.3 in
18:17 10.7 °F 9.5 °F 1008.4 in SW 14.5 mph 38.6 mph 92 % 0.3 in
18:22 10.7 °F 9.5 °F 1008.7 in WSW 20.9 mph 38.6 mph 92 % 0.3 in
18:32 10.7 °F 9.5 °F 1008.7 in SW 22.5 mph 37.0 mph 92 % 0.0 in
18:37 10.6 °F 9.4 °F 1008.7 in WSW 17.7 mph 37.0 mph 92 % 0.0 in
18:42 10.6 °F 9.4 °F 1008.7 in SW 11.3 mph 41.8 mph 92 % 0.3 in
18:47 10.5 °F 9.3 °F 1008.7 in SW 24.1 mph 41.8 mph 92 % 0.3 in
18:52 10.6 °F 9.4 °F 1008.7 in SW 17.7 mph 48.3 mph 92 % 0.3 in
18:57 10.5 °F 9.3 °F 1008.7 in SW 19.3 mph 48.3 mph 92 % 0.3 in
19:02 10.6 °F 9.4 °F 1008.7 in WSW 30.6 mph 48.3 mph 92 % 0.3 in
19:12 10.6 °F 9.4 °F 1008.7 in WSW 12.9 mph 41.8 mph 92 % 0.3 in
19:17 10.5 °F 9.3 °F 1008.7 in SW 19.3 mph 41.8 mph 92 % 0.3 in
19:22 10.5 °F 9.3 °F 1009.0 in SSW 11.3 mph 41.8 mph 92 % 0.3 in
19:27 10.4 °F 9.2 °F 1009.0 in SW 37.0 mph 40.2 mph 92 % 0.3 in
19:37 10.3 °F 9.2 °F 1009.0 in WSW 27.4 mph 43.4 mph 93 % 0.3 in
19:42 10.3 °F 9.2 °F 1009.4 in SW 27.4 mph 43.4 mph 93 % 0.3 in
19:47 10.2 °F 9.1 °F 1009.4 in WSW 22.5 mph 43.4 mph 93 % 0.3 in
19:52 10.2 °F 9.3 °F 1009.4 in SW 22.5 mph 43.4 mph 94 % 0.3 in
19:57 10.2 °F 9.3 °F 1009.4 in WSW 22.5 mph 43.4 mph 94 % 0.3 in
20:02 10.2 °F 9.1 °F 1009.4 in WSW 48.3 mph 48.3 mph 93 % 0.3 in
20:07 10.2 °F 9.1 °F 1009.4 in SW 22.5 mph 48.3 mph 93 % 0.5 in
20:12 10.2 °F 9.1 °F 1009.4 in SW 19.3 mph 48.3 mph 93 % 0.5 in
20:17 10.2 °F 9.1 °F 1009.4 in WSW 27.4 mph 48.3 mph 93 % 0.5 in
20:22 10.3 °F 9.1 °F 1009.4 in WSW 35.4 mph 40.2 mph 92 % 0.5 in
20:32 10.3 °F 9.1 °F 1009.4 in WSW 37.0 mph 41.8 mph 92 % 0.5 in
20:37 10.3 °F 9.1 °F 1009.4 in WSW 24.1 mph 45.1 mph 92 % 0.8 in
20:42 10.3 °F 9.1 °F 1009.4 in WSW 35.4 mph 45.1 mph 92 % 0.5 in
20:52 10.2 °F 9.0 °F 1009.7 in SW 22.5 mph 41.8 mph 92 % 0.8 in
20:57 10.2 °F 9.0 °F 1009.7 in WSW 14.5 mph 41.8 mph 92 % 0.8 in
21:02 10.1 °F 8.9 °F 1009.7 in WSW 32.2 mph 38.6 mph 92 % 0.5 in
21:07 10.1 °F 8.9 °F 1009.7 in WSW 25.7 mph 49.9 mph 92 % 1.0 in
21:12 10.1 °F 8.9 °F 1009.7 in SW 30.6 mph 49.9 mph 92 % 1.0 in
21:17 10.1 °F 8.9 °F 1009.7 in WSW 27.4 mph 49.9 mph 92 % 1.3 in
21:22 10.1 °F 8.9 °F 1010.0 in SW 32.2 mph 41.8 mph 92 % 1.3 in
21:32 9.9 °F 8.8 °F 1010.0 in SSW 8.0 mph 46.7 mph 93 % 1.0 in
21:37 9.9 °F 8.8 °F 1010.0 in SW 16.1 mph 40.2 mph 93 % 1.3 in
21:42 9.9 °F 8.8 °F 1010.0 in SW 24.1 mph 41.8 mph 93 % 1.3 in
21:47 9.9 °F 8.8 °F 1010.0 in SSW 17.7 mph 41.8 mph 93 % 1.0 in
21:52 9.8 °F 8.9 °F 1010.0 in WSW 14.5 mph 41.8 mph 94 % 1.0 in
21:57 9.8 °F 8.9 °F 1010.0 in WSW 20.9 mph 33.8 mph 94 % 1.0 in
22:02 9.8 °F 8.9 °F 1010.4 in WSW 20.9 mph 33.8 mph 94 % 0.8 in
22:07 9.8 °F 8.9 °F 1010.4 in WSW 30.6 mph 33.8 mph 94 % 0.5 in
22:12 9.8 °F 9.0 °F 1010.4 in WNW 20.9 mph 38.6 mph 95 % 0.5 in
22:17 9.8 °F 8.9 °F 1010.4 in WSW 14.5 mph 40.2 mph 94 % 0.5 in
22:22 9.8 °F 8.9 °F 1010.7 in WSW 19.3 mph 41.8 mph 94 % 0.5 in
22:32 9.9 °F 9.0 °F 1010.7 in WSW 35.4 mph 41.8 mph 94 % 0.5 in
22:37 10.0 °F 9.1 °F 1010.7 in West 19.3 mph 41.8 mph 94 % 0.5 in
22:42 10.0 °F 9.1 °F 1010.7 in WSW 14.5 mph 41.8 mph 94 % 0.5 in
22:47 10.0 °F 9.1 °F 1011.1 in SW 12.9 mph 41.8 mph 94 % 0.5 in
22:52 10.1 °F 9.0 °F 1011.1 in West 16.1 mph 38.6 mph 93 % 0.5 in
23:02 10.0 °F 9.1 °F 1011.1 in WSW 30.6 mph 35.4 mph 94 % 0.5 in
23:07 10.1 °F 9.0 °F 1011.1 in WSW 27.4 mph 43.4 mph 93 % 0.5 in
23:12 10.0 °F 9.1 °F 1011.1 in SW 12.9 mph 43.4 mph 94 % 0.5 in
23:17 10.0 °F 9.1 °F 1011.1 in South 9.7 mph 43.4 mph 94 % 0.5 in
23:22 10.0 °F 9.1 °F 1011.1 in WSW 22.5 mph 40.2 mph 94 % 0.5 in
23:32 10.0 °F 9.1 °F 1011.1 in SW 25.7 mph 38.6 mph 94 % 0.5 in
23:37 9.9 °F 9.0 °F 1011.4 in SW 12.9 mph 38.6 mph 94 % 0.8 in
23:42 9.9 °F 9.0 °F 1011.4 in SW 20.9 mph 38.6 mph 94 % 0.8 in
23:47 9.9 °F 9.0 °F 1011.4 in WSW 20.9 mph 33.8 mph 94 % 0.8 in
23:52 9.9 °F 9.0 °F 1011.4 in WSW 30.6 mph 32.2 mph 94 % 0.8 in
Meteo18
Compliments of Weather Underground - 4 mb

Script developed by  Jim McMurry - jmcmurry@mwt.net Adapted for the template by  Wim van der Kuil - Leuven-Template.eu

You find our weather info also at:

European Weather Network

Weather Underground

Equipment we use:

Weather-station
Davis Vue

Weather-program
Meteobridge

Weather-server
Raspberry PI 2 B+

Provider
1 and 1

Davis Vue

Meteobridge

Raspberry PI 2 B+

1 and 1